CW1459 Weather Reports


time (UTC)temp
C
wind
direction
speed
KPH
gust
KPH
rain 1hr
cm
rain 24hr
cm
rain mn
cm
humidity
%
barometer
mb
20260506151327 17 165 9.7 24.1 0.05 0.41 0.41 91 1006.2
20260506150330 17 207 14.5 29.0 0.08 0.41 0.41 91 1006.2
20260506145338 16 159 8.0 17.7 0.10 0.41 0.41 92 1006.4
20260506144312 16 171 11.3 22.5 0.08 0.38 0.38 91 1006.3
20260506143314 16 163 11.3 20.9 0.10 0.38 0.38 91 1006.4
20260506142357 16 140 8.0 16.1 0.10 0.36 0.36 91 1006.8
20260506141313 16 184 11.3 29.0 0.15 0.36 0.36 90 1007.0
20260506140333 16 146 11.3 25.7 0.13 0.33 0.33 90 1007.0
20260506135327 16 173 9.7 22.5 0.10 0.30 0.30 90 1006.9
20260506134355 16 222 11.3 24.1 0.15 0.30 0.30 90 1006.8
20260506133337 16 169 14.5 22.5 0.15 0.28 0.28 90 1006.7
20260506132355 16 136 11.3 22.5 0.13 0.25 0.25 89 1006.7
20260506131313 16 175 16.1 24.1 0.08 0.20 0.20 89 1006.8
20260506130330 16 164 12.9 22.5 0.10 0.20 0.20 89 1006.9
20260506125332 16 153 11.3 17.7 0.13 0.20 0.20 88 1006.9
20260506124333 16 208 12.9 27.4 0.10 0.15 0.15 87 1006.9
20260506123330 16 171 9.7 22.5 0.08 0.13 0.13 87 1006.8
20260506122316 16 188 11.3 22.5 0.10 0.13 0.13 86 1006.8
20260506121338 16 132 14.5 25.7 0.10 0.13 0.13 86 1006.9
20260506120314 16 128 11.3 27.4 0.10 0.10 0.10 85 1007.1
20260506115336 16 148 11.3 17.7 0.08 0.08 0.08 84 1007.1
20260506114312 16 190 9.7 24.1 0.05 0.05 0.05 82 1007.3
20260506113335 16 121 12.9 24.1 0.05 0.05 0.05 81 1007.1
20260506112337 16 123 9.7 17.7 0.03 0.03 0.03 79 1007.2
20260506111315 17 151 11.3 19.3 0.00 0.00 0.00 77 1007.2
20260506110316 17 178 8.0 16.1 0.00 0.00 0.00 74 1006.9
20260506105338 17 107 11.3 19.3 0.00 0.00 0.00 73 1006.8
20260506104335 17 204 12.9 22.5 0.00 0.00 0.00 71 1006.6
20260506103333 17 162 11.3 24.1 0.00 0.00 0.00 70 1006.4
20260506102336 17 148 11.3 27.4 0.00 0.00 0.00 69 1006.4
20260506101339 18 184 12.9 22.5 0.00 0.00 0.00 68 1006.1
20260506100331 18 145 11.3 22.5 0.00 0.00 0.00 66 1006.0
20260506095345 18 173 12.9 25.7 0.00 0.00 0.00 63 1006.0
20260506094331 18 147 12.9 24.1 0.00 0.00 0.00 62 1005.9
20260506093311 18 160 12.9 22.5 0.00 0.00 0.00 61 1005.9
20260506092336 18 132 11.3 20.9 0.00 0.00 0.00 60 1006.0
20260506091312 19 146 11.3 19.3 0.00 0.00 0.00 60 1006.1
20260506090314 19 107 12.9 24.1 0.00 0.00 0.00 59 1006.1
20260506085314 19 192 16.1 24.1 0.00 0.00 0.00 59 1006.1
20260506084334 19 157 9.7 25.7 0.00 0.00 0.00 59 1006.3
20260506083401 19 177 11.3 22.5 0.00 0.00 0.00 60 1006.3
20260506082320 19 180 14.5 24.1 0.00 0.00 0.00 59 1006.4
20260506081320 19 243 9.7 24.1 0.00 0.00 0.00 59 1006.4
20260506080320 19 142 11.3 25.7 0.00 0.00 0.00 59 1006.3
20260506073340 19 148 9.7 22.5 0.00 0.00 0.00 56 1006.2
20260506072341 19 171 8.0 22.5 0.00 0.00 0.00 55 1006.3
20260506071317 20 232 9.7 19.3 0.00 0.00 0.00 53 1006.4
20260506070319 20 155 12.9 24.1 0.00 0.00 0.00 52 1006.4
20260506062342 20 142 11.3 27.4 0.00 0.00 0.00 49 1006.9
20260506061317 21 147 12.9 24.1 0.00 0.00 0.00 48 1007.0
20260506060318 21 205 12.9 19.3 0.00 0.00 0.00 48 1007.1
20260506051318 21 213 12.9 20.9 0.00 0.00 0.00 45 1007.5
20260506050318 21 149 9.7 27.4 0.00 0.00 0.00 45 1007.7
20260506044326 21 154 9.7 24.1 0.00 0.00 0.00 45 1007.7
20260506043325 21 196 11.3 17.7 0.00 0.00 0.00 45 1007.7
20260506042332 21 190 9.7 17.7 0.00 0.00 0.00 45 1007.6
20260506041315 21 180 12.9 22.5 0.00 0.00 0.00 44 1007.6
20260506040317 21 196 8.0 19.3 0.00 0.00 0.00 44 1007.6
20260506035319 21 213 8.0 14.5 0.00 0.00 0.00 43 1007.5
20260506034336 21 162 8.0 17.7 0.00 0.00 0.00 43 1007.5
20260506033325 21 128 9.7 20.9 0.00 0.00 0.00 42 1007.6
20260506032338 21 136 9.7 20.9 0.00 0.00 0.00 41 1007.5
20260506031340 21 221 11.3 24.1 0.00 0.00 0.00 41 1007.5
20260506030333 21 188 11.3 24.1 0.00 0.00 0.00 41 1007.5
20260506025341 21 165 9.7 19.3 0.00 0.00 0.00 40 1007.5
20260506024318 21 171 11.3 20.9 0.00 0.00 0.00 40 1007.5
20260506023316 21 206 9.7 22.5 0.00 0.00 0.00 38 1007.6
20260506022315 21 198 9.7 22.5 0.00 0.00 0.00 38 1007.5
20260506021340 22 173 9.7 24.1 0.00 0.00 0.00 38 1007.6
20260506020338 22 217 11.3 17.7 0.00 0.00 0.00 37 1007.6
20260506015320 22 173 9.7 24.1 0.00 0.00 0.00 36 1007.6
20260506014315 22 189 8.0 19.3 0.00 0.00 0.00 35 1007.5
20260506013339 22 171 11.3 25.7 0.00 0.00 0.00 35 1007.4
20260506011400 22 192 8.0 16.1 0.00 0.00 0.00 35 1007.1
20260506010339 22 183 9.7 20.9 0.00 0.00 0.00 35 1007.0
20260506005314 23 188 9.7 17.7 0.00 0.00 0.00 34 1006.9
20260506004319 23 162 9.7 17.7 0.00 0.00 0.00 34 1006.9
20260506003337 23 130 11.3 22.5 0.00 0.00 0.00 33 1006.7
20260506002333 23 186 14.5 22.5 0.00 0.00 0.00 33 1006.7
20260506001332 23 200 12.9 22.5 0.00 0.00 0.00 34 1006.5
20260506000334 23 174 9.7 17.7 0.00 0.00 0.00 35 1006.4
20260505235339 24 180 9.7 20.9 0.00 0.00 0.00 35 1006.3
20260505234337 24 181 11.3 22.5 0.00 0.00 0.00 34 1006.3
20260505233359 25 178 11.3 24.1 0.00 0.00 0.00 34 1006.4
20260505232350 25 215 11.3 22.5 0.00 0.00 0.00 34 1006.3
20260505231317 25 164 11.3 24.1 0.00 0.00 0.00 34 1006.3
20260505230340 25 185 9.7 24.1 0.00 0.00 0.00 33 1006.2
20260505225319 25 205 11.3 24.1 0.00 0.00 0.00 34 1006.1
20260505224315 26 199 12.9 27.4 0.00 0.00 0.00 33 1006.3
20260505223339 26 135 16.1 27.4 0.00 0.00 0.00 34 1006.2
20260505222335 26 197 12.9 29.0 0.00 0.00 0.00 34 1006.4
20260505221317 26 146 11.3 33.8 0.00 0.00 0.00 34 1006.2
20260505220333 26 161 12.9 27.4 0.00 0.00 0.00 34 1006.3
20260505215314 26 132 16.1 30.6 0.00 0.00 0.00 33 1006.3
20260505214317 26 248 12.9 33.8 0.00 0.00 0.00 34 1006.4
20260505213339 26 206 14.5 35.4 0.00 0.00 0.00 34 1006.4
20260505212314 26 196 12.9 29.0 0.00 0.00 0.00 35 1006.2
20260505211329 27 169 17.7 35.4 0.00 0.00 0.00 34 1006.1
20260505210353 28 200 11.3 32.2 0.00 0.00 0.00 36 1006.1
20260505205356 28 220 9.7 27.4 0.00 0.00 0.00 35 1006.1
20260505204319 28 250 16.1 33.8 0.00 0.00 0.00 32 1006.1
20260505203353 28 222 17.7 35.4 0.00 0.00 0.00 28 1006.2
20260505202318 28 202 17.7 38.6 0.00 0.00 0.00 28 1006.1
20260505201339 28 219 16.1 27.4 0.00 0.00 0.00 28 1006.1
20260505200336 28 219 20.9 35.4 0.00 0.00 0.00 28 1006.3
20260505195317 29 209 17.7 27.4 0.00 0.00 0.00 28 1006.4
20260505194339 28 180 14.5 35.4 0.00 0.00 0.00 28 1006.4
20260505193315 29 211 12.9 25.7 0.00 0.00 0.00 34 1006.5
20260505192314 28 177 14.5 25.7 0.00 0.00 0.00 37 1006.5
20260505191337 28 185 11.3 29.0 0.00 0.00 0.00 34 1006.8
20260505190401 28 229 14.5 25.7 0.00 0.00 0.00 34 1007.0
20260505185338 28 233 14.5 29.0 0.00 0.00 0.00 33 1007.1
20260505184339 28 195 12.9 29.0 0.00 0.00 0.00 33 1007.2
20260505183314 28 187 12.9 40.2 0.00 0.00 0.00 33 1007.3
20260505182317 28 195 16.1 32.2 0.00 0.00 0.00 33 1007.4
20260505181328 28 180 14.5 32.2 0.00 0.00 0.00 33 1007.6
20260505180337 27 248 16.1 35.4 0.00 0.00 0.00 34 1007.7
20260505175336 28 205 14.5 32.2 0.00 0.00 0.00 34 1007.9
20260505174333 28 167 14.5 30.6 0.00 0.00 0.00 37 1007.9
20260505173334 27 187 14.5 29.0 0.00 0.00 0.00 34 1008.0
20260505172321 27 191 14.5 27.4 0.00 0.00 0.00 36 1008.0
20260505171315 28 150 14.5 30.6 0.00 0.00 0.00 33 1008.1
20260505170316 28 219 11.3 33.8 0.00 0.00 0.00 35 1008.2
20260505165319 27 135 14.5 30.6 0.00 0.00 0.00 37 1008.3
20260505164313 27 198 14.5 33.8 0.00 0.00 0.00 38 1008.5
20260505163313 27 163 16.1 32.2 0.00 0.00 0.00 36 1008.6
20260505162336 27 232 16.1 32.2 0.00 0.00 0.00 38 1008.8
20260505161313 26 202 17.7 25.7 0.00 0.00 0.00 39 1009.1
20260505160315 26 192 8.0 33.8 0.00 0.00 0.00 42 1009.2
20260505153316 26 194 9.7 25.7 0.00 0.00 0.00 40 1009.3
20260505152358 26 208 16.1 27.4 0.00 0.00 0.00 40 1009.3